• In Hungary
  • List of Countries
  • For 7 days
  • Water Temperature
  • Satellite Maps
  • Weather Map
  • News
  • Weather Widgets
  • user-avatar
    Login

    Hourly Weather Olchowiec

    Today, 21 August, Tuesday

    Time Temperature Precipitation Wind Pressure Humidity
    00:00 +20°C° 0 mm 1 mps 720 mmHg 76%
    01:00 +20°C° 0 mm 1 mps 721 mmHg 77%
    02:00 +20°C° 0 mm 1 mps 721 mmHg 77%
    03:00 +19°C° 0 mm 1 mps 721 mmHg 79%
    04:00 +19°C° 0 mm 1 mps 721 mmHg 81%
    05:00 +18°C° 0 mm 1 mps 721 mmHg 83%
    06:00 +20°C° 0 mm 1 mps 721 mmHg 81%
    07:00 +21°C° 0 mm 1 mps 722 mmHg 78%
    08:00 +21°C° 0 mm 2 mps 722 mmHg 76%
    09:00 +23°C° 0.1 mm 2 mps 722 mmHg 73%
    10:00 +24°C° 0.1 mm 2 mps 723 mmHg 70%
    11:00 +25°C° 0.1 mm 2 mps 723 mmHg 67%
    12:00 +25°C° 0.4 mm 3 mps 723 mmHg 68%
    13:00 +26°C° 0.4 mm 3 mps 723 mmHg 68%
    14:00 +26°C° 0.4 mm 3 mps 723 mmHg 68%
    15:00 +25°C° 0.2 mm 3 mps 723 mmHg 69%
    16:00 +25°C° 0.2 mm 3 mps 722 mmHg 69%
    17:00 +25°C° 0.2 mm 3 mps 722 mmHg 70%
    18:00 +23°C° 0 mm 2 mps 722 mmHg 76%
    19:00 +20°C° 0 mm 2 mps 722 mmHg 82%
    20:00 +20°C° 0 mm 1 mps 722 mmHg 88%
    21:00 +19°C° 0 mm 1 mps 723 mmHg 89%
    22:00 +18°C° 0 mm 1 mps 723 mmHg 90%
    23:00 +18°C° 0 mm 1 mps 723 mmHg 90%

    Tomorrow, 22 August, Wednesday

    Time Temperature Precipitation Wind Pressure Humidity
    00:00 +16°C° 0 mm 1 mps 723 mmHg 91%
    01:00 +16°C° 0 mm 1 mps 723 mmHg 91%
    02:00 +15°C° 0 mm 1 mps 723 mmHg 91%
    03:00 +15°C° 0 mm 1 mps 723 mmHg 92%
    04:00 +15°C° 0 mm 1 mps 723 mmHg 92%
    05:00 +14°C° 0 mm 1 mps 723 mmHg 92%
    06:00 +15°C° 0 mm 1 mps 723 mmHg 88%
    07:00 +18°C° 0 mm 1 mps 724 mmHg 83%
    08:00 +19°C° 0 mm 1 mps 724 mmHg 79%
    09:00 +19°C° 0 mm 2 mps 724 mmHg 72%
    10:00 +21°C° 0 mm 2 mps 724 mmHg 66%
    11:00 +22°C° 0 mm 3 mps 725 mmHg 60%
    12:00 +24°C° 0 mm 3 mps 724 mmHg 59%
    13:00 +25°C° 0 mm 3 mps 724 mmHg 58%
    14:00 +25°C° 0 mm 3 mps 724 mmHg 57%
    15:00 +25°C° 0 mm 3 mps 724 mmHg 59%
    16:00 +25°C° 0 mm 3 mps 724 mmHg 61%
    17:00 +24°C° 0 mm 3 mps 723 mmHg 63%
    18:00 +21°C° 0 mm 3 mps 723 mmHg 71%
    19:00 +20°C° 0 mm 2 mps 723 mmHg 80%
    20:00 +18°C° 0 mm 2 mps 723 mmHg 88%
    21:00 +17°C° 0 mm 2 mps 723 mmHg 90%
    22:00 +16°C° 0 mm 2 mps 723 mmHg 92%
    23:00 +16°C° 0 mm 1 mps 723 mmHg 94%

    Day after tomorrow, 23 August, Thursday

    Time Temperature Precipitation Wind Pressure Humidity
    00:00 +15°C° 0 mm 1 mps 723 mmHg 94%
    01:00 +15°C° 0 mm 1 mps 723 mmHg 94%
    02:00 +15°C° 0 mm 1 mps 723 mmHg 94%
    03:00 +14°C° 0 mm 1 mps 722 mmHg 94%
    04:00 +14°C° 0 mm 1 mps 722 mmHg 94%
    05:00 +14°C° 0 mm 1 mps 722 mmHg 94%
    06:00 +16°C° 0 mm 1 mps 722 mmHg 89%
    07:00 +19°C° 0 mm 1 mps 722 mmHg 84%
    08:00 +20°C° 0 mm 1 mps 722 mmHg 79%
    09:00 +22°C° 0 mm 1 mps 722 mmHg 71%
    10:00 +24°C° 0 mm 1 mps 722 mmHg 63%
    11:00 +27°C° 0 mm 1 mps 722 mmHg 54%
    12:00 +27°C° 0 mm 1 mps 722 mmHg 52%
    13:00 +28°C° 0 mm 1 mps 722 mmHg 51%
    14:00 +29°C° 0 mm 1 mps 722 mmHg 49%
    15:00 +28°C° 0.1 mm 1 mps 721 mmHg 52%
    16:00 +28°C° 0.1 mm 1 mps 721 mmHg 55%
    17:00 +28°C° 0.1 mm 1 mps 721 mmHg 58%
    18:00 +26°C° 0 mm 1 mps 721 mmHg 65%
    19:00 +23°C° 0 mm 1 mps 720 mmHg 73%
    20:00 +21°C° 0 mm 1 mps 720 mmHg 80%
    21:00 +21°C° 0 mm 1 mps 720 mmHg 82%
    22:00 +20°C° 0 mm 1 mps 720 mmHg 83%
    23:00 +20°C° 0 mm 1 mps 720 mmHg 85%

    24 August, Friday

    Time Temperature Precipitation Wind Pressure Humidity
    00:00 +20°C° 0 mm 1 mps 720 mmHg 85%
    01:00 +19°C° 0 mm 1 mps 720 mmHg 85%
    02:00 +19°C° 0 mm 1 mps 720 mmHg 85%
    03:00 +19°C° 0 mm 1 mps 719 mmHg 86%
    04:00 +19°C° 0 mm 1 mps 719 mmHg 86%
    05:00 +19°C° 0 mm 1 mps 719 mmHg 86%
    06:00 +20°C° 0 mm 1 mps 719 mmHg 82%
    07:00 +21°C° 0 mm 1 mps 719 mmHg 79%
    08:00 +23°C° 0 mm 1 mps 719 mmHg 75%
    09:00 +24°C° 0 mm 2 mps 719 mmHg 68%
    10:00 +26°C° 0 mm 2 mps 719 mmHg 62%
    11:00 +28°C° 0 mm 2 mps 719 mmHg 55%
    12:00 +28°C° 0.1 mm 2 mps 719 mmHg 54%
    13:00 +29°C° 0.1 mm 2 mps 719 mmHg 52%
    14:00 +29°C° 0.1 mm 2 mps 718 mmHg 50%
    15:00 +29°C° 0.1 mm 2 mps 718 mmHg 53%
    16:00 +28°C° 0.1 mm 2 mps 718 mmHg 56%
    17:00 +28°C° 0.1 mm 2 mps 717 mmHg 59%
    18:00 +26°C° 0.1 mm 2 mps 717 mmHg 65%
    19:00 +24°C° 0.1 mm 1 mps 717 mmHg 71%
    20:00 +22°C° 0.1 mm 1 mps 717 mmHg 76%
    21:00 +21°C° 0.2 mm 1 mps 717 mmHg 79%
    22:00 +21°C° 0.2 mm 1 mps 716 mmHg 82%
    23:00 +20°C° 0.2 mm 1 mps 716 mmHg 84%

    25 August, Saturday

    Time Temperature Precipitation Wind Pressure Humidity
    00:00 +20°C° 1.2 mm 1 mps 716 mmHg 86%
    01:00 +19°C° 1.2 mm 1 mps 716 mmHg 88%
    02:00 +19°C° 1.2 mm 1 mps 716 mmHg 90%
    03:00 +19°C° 0.8 mm 1 mps 716 mmHg 92%
    04:00 +18°C° 0.8 mm 1 mps 716 mmHg 93%
    05:00 +18°C° 0.8 mm 1 mps 716 mmHg 95%
    06:00 +19°C° 0.2 mm 1 mps 717 mmHg 94%
    07:00 +19°C° 0.2 mm 1 mps 717 mmHg 93%
    08:00 +20°C° 0.2 mm 1 mps 717 mmHg 93%
    09:00 +21°C° 0.5 mm 1 mps 717 mmHg 91%
    10:00 +21°C° 0.5 mm 1 mps 717 mmHg 88%
    11:00 +21°C° 0.5 mm 2 mps 718 mmHg 86%
    12:00 +21°C° 0.8 mm 2 mps 718 mmHg 87%
    13:00 +21°C° 0.8 mm 2 mps 717 mmHg 87%
    14:00 +20°C° 0.8 mm 3 mps 717 mmHg 87%
    15:00 +20°C° 0.4 mm 3 mps 717 mmHg 88%
    16:00 +19°C° 0.4 mm 3 mps 717 mmHg 89%
    17:00 +18°C° 0.4 mm 3 mps 717 mmHg 91%
    18:00 +18°C° 0.2 mm 3 mps 717 mmHg 92%
    19:00 +17°C° 0.2 mm 2 mps 717 mmHg 94%
    20:00 +16°C° 0.2 mm 2 mps 717 mmHg 96%
    21:00 +16°C° 0.5 mm 2 mps 717 mmHg 96%
    22:00 +16°C° 0.5 mm 2 mps 717 mmHg 96%
    23:00 +16°C° 0.5 mm 2 mps 716 mmHg 97%

    26 August, Sunday

    Time Temperature Precipitation Wind Pressure Humidity
    00:00 +16°C° 0.8 mm 2 mps 716 mmHg 97%
    01:00 +16°C° 0.8 mm 2 mps 716 mmHg 97%
    02:00 +16°C° 0.8 mm 2 mps 716 mmHg 97%
    03:00 +16°C° 0.1 mm 1 mps 715 mmHg 97%
    04:00 +16°C° 0.1 mm 1 mps 715 mmHg 97%
    05:00 +16°C° 0.1 mm 1 mps 715 mmHg 97%
    06:00 +18°C° 0 mm 1 mps 714 mmHg 95%
    07:00 +19°C° 0 mm 1 mps 714 mmHg 93%
    08:00 +19°C° 0 mm 2 mps 714 mmHg 90%
    09:00 +21°C° 0 mm 2 mps 714 mmHg 80%
    10:00 +24°C° 0 mm 3 mps 714 mmHg 70%
    11:00 +26°C° 0 mm 4 mps 714 mmHg 59%
    12:00 +27°C° 0.1 mm 4 mps 713 mmHg 58%
    13:00 +27°C° 0.1 mm 5 mps 713 mmHg 56%
    14:00 +28°C° 0.1 mm 5 mps 713 mmHg 54%
    15:00 +27°C° 0.6 mm 4 mps 712 mmHg 59%
    16:00 +26°C° 0.6 mm 3 mps 712 mmHg 64%
    17:00 +25°C° 0.6 mm 2 mps 712 mmHg 69%
    18:00 +24°C° 2.2 mm 2 mps 712 mmHg 74%
    19:00 +21°C° 2.2 mm 3 mps 712 mmHg 80%
    20:00 +20°C° 2.2 mm 3 mps 712 mmHg 85%
    21:00 +19°C° 2.9 mm 2 mps 712 mmHg 88%
    22:00 +18°C° 2.9 mm 2 mps 712 mmHg 91%
    23:00 +18°C° 2.9 mm 1 mps 713 mmHg 94%
    Show more